[[{"header":{"parameterUnit":"m.s-1","parameterCategory":1,"la1":30.2991,"la2":30.254,"lo1":-89.0895,"lo2":-89.0444,"dy":0.0017,"dx":0.0017,"nx":28,"ny":28,"refTime":"2024-05-09T09:00:00:Z","depth":0,"parameterNumber":2,"parameterNumberName":"U-component_of_WINDS"},"data":[0,0,0,0,0,0,0,0,0,0,0,0,0,0,0,0,0,0,0,0,0,0,0,0,0,0,0,0,0,0,0,0,0,0,0,0,0,0,0,0,0,0,0,0,0,0,0,0,0,0,0,0,0,0,0,0,0,0,-1.8668,-1.8668,0,-1.8636,-1.8636,-1.8636,-1.8607,-1.8606,-1.8606,-1.8606,-1.8572,-1.8572,-1.8571,0,0,0,0,0,0,0,0,0,0,0,0,0,-1.8704,-1.8704,-1.8668,-1.8668,-1.8668,-1.8636,-1.8636,-1.8635,-1.8607,-1.8606,-1.8606,-1.8606,-1.8572,-1.8572,-1.8571,0,0,0,0,0,0,0,0,0,0,0,0,0,-1.8682,-1.8704,-1.8668,-1.8649,-1.8647,-1.8636,-1.8636,-1.8635,-1.8607,-1.8606,-1.8606,-1.8605,-1.8573,-1.8572,-1.8571,-1.8576,0,0,-1.8568,-1.8568,0,0,0,0,0,0,0,0,-1.8684,-1.8681,-1.8653,-1.8651,-1.8648,-1.8625,-1.8636,-1.8615,-1.8607,-1.8622,-1.8606,-1.8605,-1.859,-1.8588,-1.8583,-1.8574,-1.8573,-1.8568,-1.8568,-1.8567,-1.8567,0,0,0,0,0,0,0,-1.8685,-1.8682,-1.8656,-1.8652,-1.865,-1.8643,-1.8639,-1.8632,-1.8609,-1.8621,-1.8619,-1.8615,-1.8589,-1.8584,-1.8582,-1.8572,-1.8568,-1.8567,-1.8567,-1.8567,-1.8566,-1.8566,0,0,0,0,0,0,-1.869,-1.8684,-1.8657,-1.8655,-1.8665,-1.8642,-1.8638,-1.8633,-1.8609,-1.8605,-1.8616,-1.8614,-1.8586,-1.8583,-1.8581,-1.8584,-1.8567,-1.8566,-1.8566,-1.8565,-1.8566,-1.8566,0,0,0,0,0,0,-1.869,-1.8687,-1.8658,-1.8669,-1.8664,-1.8642,-1.8637,-1.8633,-1.8627,-1.8606,-1.8601,-1.8615,-1.8585,-1.8582,-1.8577,-1.8582,-1.8566,-1.8565,-1.8565,-1.8566,-1.8566,-1.8592,0,0,0,0,0,0,-1.8692,-1.8688,-1.8689,-1.8669,-1.8664,-1.8655,-1.8637,-1.8632,-1.8626,-1.8624,-1.8603,-1.86,-1.8584,-1.8579,-1.8576,-1.8581,-1.8565,-1.8564,-1.8565,-1.8566,-1.859,-1.8593,-1.8596,0,0,0,0,0,-1.8693,-1.8698,-1.869,-1.8687,-1.8665,-1.8655,-1.8653,-1.8635,-1.8627,-1.8628,-1.8614,-1.86,-1.8583,-1.8578,-1.8576,-1.858,-1.8564,-1.8565,-1.8566,-1.8589,-1.8592,-1.8596,0,0,0,0,0,0,-1.8719,-1.8695,-1.8685,-1.8684,-1.8672,-1.8651,-1.8652,-1.864,-1.863,-1.8628,-1.8606,-1.8602,-1.86,-1.859,-1.8585,-1.8584,-1.8571,-1.8572,-1.859,-1.8593,-1.8596,-1.8597,-1.8564,0,0,0,0,0,-1.8725,-1.8719,-1.8698,-1.8699,-1.8693,-1.8674,-1.8669,-1.8656,-1.8643,-1.8638,-1.8624,-1.8611,-1.8603,-1.8598,-1.8589,-1.8589,-1.8584,-1.8591,-1.8594,-1.8596,-1.8596,-1.8595,-1.8598,-1.857,-1.857,-1.857,0,0,-1.8736,-1.8722,-1.872,-1.8703,-1.8693,-1.8687,-1.8669,-1.8664,-1.866,-1.8637,-1.8631,-1.8621,-1.8606,-1.8604,-1.8602,-1.8595,-1.8603,-1.8598,-1.86,-1.8599,-1.8597,-1.86,-1.8602,-1.8571,-1.8571,-1.8571,0,0,-1.8754,-1.8743,-1.8742,-1.8732,-1.8716,-1.8703,-1.8703,-1.8684,-1.8676,-1.8671,-1.8654,-1.8648,-1.8634,-1.8624,-1.8617,-1.8632,-1.8619,-1.863,-1.8644,-1.8643,-1.8645,-1.8647,-1.8651,-1.8653,-1.8631,-1.8631,-1.8631,0,-1.8769,-1.876,-1.8743,-1.8738,-1.8731,-1.8712,-1.871,-1.8702,-1.8684,-1.868,-1.8673,-1.8655,-1.8644,-1.8638,-1.8642,-1.8638,-1.8636,-1.8631,-1.8646,-1.8648,-1.8649,-1.8653,-1.8655,-1.8632,-1.8632,-1.8632,-1.8632,0,-1.878,-1.8774,-1.8775,-1.8759,-1.8752,-1.8749,-1.8732,-1.8727,-1.8716,-1.8704,-1.8699,-1.8685,-1.8672,-1.8671,-1.8659,-1.8664,-1.866,-1.865,-1.8637,-1.8654,-1.8657,-1.8658,-1.8634,-1.8634,-1.8633,-1.8633,0,0,-1.8811,-1.8786,-1.8786,-1.8779,-1.8761,-1.8756,-1.8752,-1.8741,-1.8737,-1.8726,-1.8722,-1.8712,-1.8703,-1.8695,-1.8683,-1.8682,-1.8694,-1.8672,-1.8671,-1.8676,-1.8697,-1.8704,-1.8706,-1.8686,-1.8686,-1.8687,-1.8698,0,-1.8824,-1.8817,-1.8801,-1.8799,-1.8792,-1.8774,-1.8772,-1.876,-1.8749,-1.8743,-1.8731,-1.8723,-1.8712,-1.8707,-1.8706,-1.8693,-1.8698,-1.8692,-1.8681,-1.8681,-1.8684,-1.8708,-1.8714,-1.8726,-1.87,-1.87,-1.87,0,-1.8838,-1.8828,-1.8825,-1.8808,-1.8805,-1.8802,-1.879,-1.8785,-1.8772,-1.8764,-1.8756,-1.8743,-1.8738,-1.8728,-1.8721,-1.8717,-1.8712,-1.8705,-1.8705,-1.8702,-1.869,-1.8704,-1.8729,-1.8731,-1.8702,-1.8702,-1.8702,0,-1.886,-1.8846,-1.8842,-1.8836,-1.8816,-1.8815,-1.8806,-1.8793,-1.8787,-1.8777,-1.8773,-1.8763,-1.8757,-1.8749,-1.8734,-1.8728,-1.8729,-1.8717,-1.8721,-1.8721,-1.872,-1.872,-1.8744,-1.872,-1.872,-1.872,-1.872,0,-1.8875,-1.8873,-1.8851,-1.8849,-1.8846,-1.883,-1.8828,-1.8818,-1.8806,-1.8801,-1.8786,-1.8781,-1.8762,-1.8756,-1.8744,-1.8739,-1.8737,-1.873,-1.8727,-1.8731,-1.8731,-1.8726,-1.8724,-1.8721,-1.872,-1.872,-1.872,0,-1.8898,-1.8883,-1.8877,-1.8859,-1.8855,-1.8854,-1.8838,-1.8835,-1.8824,-1.8818,-1.8816,-1.8798,-1.879,-1.8774,-1.8761,-1.8753,-1.8751,-1.8746,-1.8755,-1.8753,-1.8758,-1.8757,-1.8777,-1.8779,-1.8755,-1.8756,-1.8756,0,-1.8908,-1.8906,-1.8888,-1.8884,-1.8876,-1.8869,-1.8863,-1.8847,-1.8842,-1.8827,-1.8826,-1.8816,-1.8808,-1.8795,-1.8781,-1.8771,-1.8765,-1.8773,-1.8763,-1.8767,-1.8764,-1.8763,-1.8763,-1.8775,-1.8775,-1.8775,-1.8775,0,-1.8926,-1.8919,-1.8912,-1.8901,-1.8895,-1.8886,-1.8876,-1.8874,-1.8855,-1.885,-1.8841,-1.8835,-1.8822,-1.8813,-1.8801,-1.8793,-1.8781,-1.8779,-1.8779,-1.8782,-1.8787,-1.8783,-1.876,-1.8778,-1.8778,-1.8778,-1.8777,-1.8777,-1.8942,-1.894,-1.8927,-1.8918,-1.891,-1.8901,-1.8897,-1.8886,-1.8879,-1.8867,-1.8858,-1.885,-1.8838,-1.8821,-1.8813,-1.8807,-1.8801,-1.8802,-1.8802,-1.8802,-1.8803,-1.879,-1.8805,-1.8805,-1.8805,-1.8805,-1.8804,0,-1.8959,-1.895,-1.8943,-1.893,-1.8923,-1.8914,-1.8903,-1.8898,-1.8891,-1.8881,-1.8873,-1.8864,-1.8855,-1.8841,-1.8831,-1.8828,-1.8822,-1.8826,-1.8825,-1.8823,-1.8809,-1.8809,-1.8831,-1.8831,-1.8831,-1.8831,-1.8831,-1.883,-1.8967,-1.8962,-1.8954,-1.8945,-1.8936,-1.8928,-1.8922,-1.8914,-1.8906,-1.8896,-1.8888,-1.888,-1.8868,-1.8857,-1.8848,-1.8844,-1.8841,-1.8846,-1.884,-1.8827,-1.8824,-1.8822,-1.8822,-1.8845,-1.8845,-1.8854,-1.8854,-1.8854]},{"header":{"parameterUnit":"m.s-1","parameterCategory":1,"la1":30.2991,"la2":30.254,"lo1":-89.0895,"lo2":-89.0444,"dy":0.0017,"dx":0.0017,"nx":28,"ny":28,"refTime":"2024-05-09T09:00:00:Z","depth":0,"parameterNumber":3,"parameterNumberName":"V-component_of_WINDS"},"data":[0,0,0,0,0,0,0,0,0,0,0,0,0,0,0,0,0,0,0,0,0,0,0,0,0,0,0,0,0,0,0,0,0,0,0,0,0,0,0,0,0,0,0,0,0,0,0,0,0,0,0,0,0,0,0,0,0,0,4.6636,4.6637,0,4.6809,4.6811,4.6813,4.6886,4.6885,4.6885,4.6885,4.706,4.7064,4.7069,0,0,0,0,0,0,0,0,0,0,0,0,0,4.6364,4.6369,4.6635,4.6638,4.664,4.6809,4.6811,4.6814,4.6886,4.6885,4.6885,4.6885,4.7058,4.7064,4.707,0,0,0,0,0,0,0,0,0,0,0,0,0,4.6504,4.637,4.6635,4.6696,4.6703,4.6809,4.6812,4.6814,4.6886,4.6885,4.6885,4.6884,4.7056,4.7063,4.7071,4.7127,0,0,4.7093,4.7097,0,0,0,0,0,0,0,0,4.6496,4.6514,4.6685,4.6692,4.67,4.6825,4.678,4.6919,4.6886,4.6816,4.6885,4.6884,4.6982,4.6995,4.7029,4.7135,4.7143,4.7094,4.7099,4.7102,4.7104,0,0,0,0,0,0,0,4.6486,4.6507,4.6704,4.6687,4.6697,4.6714,4.6734,4.6807,4.69,4.6823,4.6828,4.6848,4.6986,4.7022,4.7034,4.7145,4.7094,4.71,4.7105,4.7108,4.7308,4.7309,0,0,0,0,0,0,4.6467,4.6498,4.6699,4.6709,4.6595,4.672,4.6741,4.6786,4.6899,4.6916,4.6848,4.6851,4.7009,4.7025,4.704,4.7115,4.7102,4.7109,4.7113,4.7307,4.7308,4.7309,0,0,0,0,0,0,4.6461,4.6484,4.6692,4.6606,4.6633,4.6725,4.6774,4.6789,4.6825,4.6919,4.6935,4.6868,4.7009,4.703,4.7106,4.7122,4.7112,4.7119,4.7306,4.7308,4.7309,4.7265,0,0,0,0,0,0,4.6453,4.6481,4.6504,4.6606,4.6638,4.6755,4.6775,4.6793,4.6838,4.6843,4.6941,4.6957,4.7011,4.7094,4.7113,4.7132,4.7125,4.7305,4.7307,4.7308,4.7265,4.7264,4.7263,0,0,0,0,0,4.6443,4.6483,4.6505,4.6529,4.6668,4.6755,4.6774,4.6835,4.6839,4.6863,4.6923,4.6954,4.7117,4.7101,4.7123,4.7145,4.7305,4.7307,4.7308,4.7265,4.7264,4.7263,0,0,0,0,0,0,4.638,4.6498,4.6523,4.6598,4.6666,4.6767,4.6799,4.6832,4.6899,4.6901,4.6973,4.6995,4.7065,4.7113,4.7093,4.7206,4.7213,4.722,4.7173,4.7173,4.7172,4.716,4.7131,0,0,0,0,0,4.6375,4.6437,4.6536,4.6593,4.6626,4.6706,4.6746,4.6788,4.6862,4.689,4.6956,4.7025,4.7093,4.7135,4.7202,4.7272,4.7295,4.7298,4.7297,4.7296,4.7301,4.7343,4.7346,4.7316,4.7316,4.7316,0,0,4.6365,4.6437,4.6471,4.6582,4.664,4.6702,4.673,4.6794,4.6841,4.69,4.6977,4.7027,4.7109,4.7183,4.7219,4.7225,4.7314,4.7298,4.7297,4.7303,4.7345,4.7348,4.7351,4.7317,4.7317,4.7316,0,0,4.6379,4.6439,4.6494,4.6552,4.664,4.6694,4.6707,4.6804,4.684,4.6918,4.6964,4.7021,4.7134,4.7192,4.7236,4.7273,4.7305,4.7293,4.7289,4.7329,4.7332,4.7334,4.7349,4.7353,4.7297,4.7297,4.7297,0,4.6355,4.6452,4.6518,4.6581,4.6628,4.6686,4.6742,4.6795,4.6899,4.693,4.6936,4.7081,4.714,4.7229,4.7239,4.7272,4.7289,4.7282,4.7326,4.7329,4.7333,4.7348,4.7353,4.7295,4.7295,4.7295,4.7296,0,4.6419,4.6485,4.6519,4.6621,4.6672,4.673,4.6805,4.6849,4.6886,4.6939,4.7019,4.7092,4.7176,4.72,4.7236,4.7294,4.7295,4.7312,4.7321,4.7333,4.7348,4.7354,4.7292,4.7293,4.7293,4.7294,0,0,4.6398,4.6537,4.6548,4.6596,4.6698,4.675,4.6812,4.6895,4.6932,4.7002,4.7056,4.7152,4.7169,4.7219,4.7262,4.7297,4.7325,4.7311,4.7314,4.7312,4.7395,4.7382,4.7388,4.7346,4.7347,4.7348,4.7389,0,4.6427,4.6541,4.6603,4.6691,4.6754,4.681,4.6864,4.6932,4.6984,4.7044,4.71,4.7168,4.7184,4.7215,4.7252,4.7313,4.7342,4.7311,4.7397,4.7399,4.7376,4.7396,4.7382,4.7417,4.7395,4.7396,4.7397,0,4.6475,4.6547,4.6642,4.6739,4.6768,4.6815,4.6897,4.6954,4.7033,4.7068,4.7124,4.7168,4.7235,4.7238,4.7332,4.731,4.7348,4.7384,4.7386,4.7398,4.7399,4.7409,4.7429,4.7435,4.7407,4.7406,4.7405,0,4.6452,4.6572,4.6645,4.6684,4.6798,4.6831,4.688,4.6958,4.7005,4.7076,4.7108,4.7185,4.7228,4.7287,4.735,4.7346,4.7438,4.7446,4.747,4.7468,4.7487,4.7485,4.7515,4.751,4.751,4.751,4.7509,0,4.6479,4.6535,4.6637,4.6682,4.6747,4.6817,4.6879,4.6932,4.7002,4.7058,4.7111,4.7162,4.7242,4.7303,4.7353,4.7424,4.7443,4.7473,4.7486,4.7469,4.7466,4.7496,4.7496,4.7511,4.7511,4.751,4.751,0,4.6464,4.6534,4.6618,4.672,4.6747,4.679,4.6878,4.6924,4.6978,4.7049,4.7069,4.7154,4.723,4.7299,4.7398,4.7431,4.7504,4.7519,4.7478,4.7485,4.7505,4.7503,4.7557,4.7569,4.7553,4.7553,4.7553,0,4.6476,4.6521,4.6629,4.6671,4.672,4.6786,4.6835,4.6906,4.6955,4.7049,4.7084,4.7163,4.7231,4.7348,4.7418,4.7495,4.7514,4.7527,4.7525,4.7508,4.7516,4.7513,4.7518,4.7527,4.7526,4.7526,4.7526,0,4.6492,4.6525,4.6594,4.6675,4.6732,4.6799,4.6868,4.6899,4.6983,4.7035,4.7113,4.7166,4.7269,4.7347,4.7432,4.7482,4.7519,4.7526,4.7536,4.752,4.7495,4.751,4.7477,4.7525,4.7525,4.7525,4.7525,4.7525,4.6492,4.6536,4.6619,4.6694,4.6754,4.6817,4.6866,4.6927,4.6995,4.7085,4.7123,4.7203,4.7282,4.74,4.745,4.7513,4.7521,4.7534,4.7538,4.7541,4.7538,4.7484,4.7529,4.7529,4.7529,4.7529,4.7529,0,4.6511,4.6568,4.6637,4.6733,4.6792,4.6822,4.69,4.6948,4.7018,4.7089,4.7155,4.7246,4.7323,4.74,4.7481,4.7517,4.7536,4.7536,4.7535,4.7546,4.7526,4.7511,4.752,4.752,4.752,4.752,4.752,4.752,4.6529,4.6604,4.6648,4.6754,4.681,4.689,4.6933,4.6992,4.7049,4.7149,4.7214,4.7264,4.7338,4.7426,4.7498,4.7518,4.7546,4.7542,4.7567,4.7547,4.7547,4.7547,4.7533,4.7547,4.7547,4.7583,4.7583,4.7583]}]]